Weather History for KOVS - September, 2013

Change the Weather History Date:

Monday, September 30, 2013

  Actual Average (KLNR) Record (KLNR)
Temperature  
Mean Temperature 58 °F -  
Max Temperature 75 °F 63 °F - (-1)
Min Temperature 41 °F 42 °F - (-1)
Degree Days  
Heating Degree Days 7    
Growing Degree Days 8 (Base 50)    
Moisture  
Dew Point 43 °F    
Average Humidity 83    
Maximum Humidity 97    
Minimum Humidity 31    
Precipitation  
Precipitation 0.00 in - - ()
Sea Level Pressure  
Sea Level Pressure 29.93 in    
Wind  
Wind Speed 1 mph (SSW)    
Max Wind Speed 16 mph    
Max Gust Speed 23 mph    
Visibility 4 miles    
Events Fog    
Averages and records for this station are not official NWS values.
T = Trace of Precipitation, MM = Missing Value Source: NWS Daily Summary

Daily Weather History Graph

Daily Weather History Graph

Search for Another Location

Airport or City:

Trip Planner

Search our weather history database for the weather conditions in past years. The results will help you decide how hot, cold, wet, or windy it might be!

Date:

Astronomy

Sep. 30, 2013 Rise Set
Actual Time 6:59 AM CDT 6:45 PM CDT
Civil Twilight 6:30 AM CDT 7:13 PM CDT
Nautical Twilight 5:57 AM CDT 7:46 PM CDT
Astronomical Twilight 5:24 AM CDT 8:19 PM CDT
Moon 2:30 AM CDT (9/30) 4:21 PM CDT (9/30)
Length of Visible Light 12h 42m
Length of Day
11h 45m
Waning Crescent, 19% of the Moon is Illuminated
Sep 30
Waning Crescent
Oct 4
New
Oct 11
First Quarter
Oct 18
Full
Oct 26
Last Quarter

Hourly Weather History & Observations

Time (CDT) Temp. Windchill Dew Point Humidity Pressure Visibility Wind Dir Wind Speed Gust Speed Precip Events Conditions
12:10 AM 46.9 °F - 45.0 °F 93% 29.97 in 3.0 mi Calm Calm - N/A   Clear
12:15 AM 46.0 °F - 45.0 °F 96% 29.97 in 1.5 mi Calm Calm - N/A   Partly Cloudy
12:23 AM 46.0 °F - 44.1 °F 93% 29.96 in 0.2 mi Calm Calm - N/A Fog Fog
12:32 AM 46.0 °F - 44.1 °F 93% 29.96 in 1.8 mi Calm Calm - N/A   Scattered Clouds
12:39 AM 46.0 °F - 44.1 °F 93% 29.96 in 9.0 mi Calm Calm - N/A   Scattered Clouds
12:53 AM 46.0 °F - 44.1 °F 93% 29.97 in 6.0 mi Calm Calm - N/A   Partly Cloudy
1:02 AM 45.0 °F - 44.1 °F 97% 29.97 in 1.5 mi Calm Calm - N/A   Clear
1:05 AM 45.0 °F - 44.1 °F 97% 29.97 in 0.8 mi Calm Calm - N/A   Clear
1:13 AM 46.0 °F - 44.1 °F 93% 29.97 in 1.0 mi Calm Calm - N/A   Mist
1:16 AM 46.0 °F - 44.1 °F 93% 29.97 in 2.0 mi Calm Calm - N/A   Partly Cloudy
1:40 AM 46.0 °F - 44.1 °F 93% 29.97 in 3.0 mi Calm Calm - N/A   Clear
1:50 AM 44.6 °F - 42.8 °F 93% 29.97 in 1.8 mi Calm Calm - N/A   Clear
1:53 AM 45.0 °F - 43.0 °F 93% 29.98 in 1.8 mi Calm Calm - N/A   Clear
1:59 AM 45.0 °F - 43.0 °F 93% 29.97 in 4.0 mi Calm Calm - N/A   Clear
2:16 AM 44.1 °F - 43.0 °F 96% 29.97 in 1.5 mi Calm Calm - N/A   Clear
2:26 AM 45.0 °F - 43.0 °F 93% 29.96 in 2.5 mi Calm Calm - N/A   Partly Cloudy
2:31 AM 44.1 °F - 43.0 °F 96% 29.96 in 3.0 mi Calm Calm - N/A   Mostly Cloudy
2:33 AM 44.1 °F - 43.0 °F 96% 29.96 in 1.2 mi Calm Calm - N/A   Mostly Cloudy
2:35 AM 44.1 °F - 42.1 °F 93% 29.96 in 0.8 mi Calm Calm - N/A   Mist
2:53 AM 44.1 °F - 43.0 °F 96% 29.96 in 0.2 mi Calm Calm - N/A Fog Fog
3:32 AM 43.0 °F - 41.0 °F 93% 29.96 in 1.2 mi Calm Calm - N/A   Mostly Cloudy
3:36 AM 43.0 °F - 41.0 °F 93% 29.96 in 4.0 mi Calm Calm - N/A   Mostly Cloudy
3:41 AM 43.0 °F - 41.0 °F 93% 29.95 in 2.0 mi Calm Calm - N/A   Scattered Clouds
3:48 AM 42.8 °F 41.1 °F 41.0 °F 93% 29.96 in 1.2 mi WNW 3.5 mph - N/A   Mostly Cloudy
3:51 AM 42.8 °F - 41.0 °F 93% 29.96 in 2.0 mi Calm Calm - N/A   Scattered Clouds
3:53 AM 43.0 °F - 41.0 °F 93% 29.97 in 3.0 mi Calm Calm - N/A   Scattered Clouds
3:58 AM 43.0 °F - 42.1 °F 97% 29.96 in 2.0 mi Calm Calm - N/A   Mostly Cloudy
4:11 AM 42.1 °F - 41.0 °F 96% 29.96 in 1.0 mi Calm Calm - N/A   Mist
4:18 AM 43.0 °F - 41.0 °F 93% 29.96 in 0.5 mi Calm Calm - N/A Fog Fog
4:23 AM 43.0 °F - 41.0 °F 93% 29.95 in 1.2 mi Calm Calm - N/A   Mostly Cloudy
4:28 AM 43.0 °F - 41.0 °F 93% 29.95 in 3.0 mi Calm Calm - N/A   Mostly Cloudy
4:30 AM 43.0 °F - 41.0 °F 93% 29.95 in 2.0 mi Calm Calm - N/A   Scattered Clouds
4:33 AM 43.0 °F - 41.0 °F 93% 29.95 in 1.0 mi Calm Calm - N/A   Mist
4:41 AM 42.1 °F - 41.0 °F 96% 29.96 in 0.5 mi Calm Calm - N/A Fog Fog
4:53 AM 42.1 °F - 41.0 °F 96% 29.96 in 0.5 mi Calm Calm - N/A Fog Fog
5:02 AM 42.1 °F - 41.0 °F 96% 29.95 in 1.2 mi Calm Calm - N/A   Scattered Clouds
5:26 AM 41.0 °F - 39.9 °F 96% 29.96 in 0.8 mi Calm Calm - N/A   Mist
5:34 AM 41.0 °F 39.0 °F 39.9 °F 96% 29.95 in 1.5 mi ESE 3.5 mph - N/A   Partly Cloudy
5:37 AM 41.0 °F - 39.9 °F 96% 29.95 in 3.0 mi Calm Calm - N/A   Partly Cloudy
5:53 AM 41.0 °F - 39.9 °F 96% 29.95 in 5.0 mi Calm Calm - N/A   Partly Cloudy
6:53 AM 43.0 °F - 41.0 °F 93% 29.95 in 6.0 mi Calm Calm - N/A   Clear
7:53 AM 48.0 °F - 46.0 °F 93% 29.96 in 10.0 mi Calm Calm - N/A   Clear
8:53 AM 57.0 °F - 50.0 °F 77% 29.94 in 10.0 mi Calm Calm - N/A   Clear
9:53 AM 63.0 °F - 46.0 °F 54% 29.94 in 10.0 mi SSW 6.9 mph 16.1 mph N/A   Clear
10:53 AM 66.9 °F - 45.0 °F 45% 29.93 in 10.0 mi SSW 12.7 mph 23.0 mph N/A   Clear
11:53 AM 70.0 °F - 44.1 °F 39% 29.91 in 10.0 mi South 11.5 mph 23.0 mph N/A   Clear
12:53 PM 72.0 °F - 45.0 °F 38% 29.90 in 10.0 mi South 11.5 mph 21.9 mph N/A   Clear
1:53 PM 73.0 °F - 46.0 °F 38% 29.86 in 10.0 mi South 16.1 mph 20.7 mph N/A   Clear
2:53 PM 75.0 °F - 46.0 °F 36% 29.83 in 10.0 mi South 10.4 mph 19.6 mph N/A   Clear
3:53 PM 75.0 °F - 43.0 °F 32% 29.80 in 10.0 mi South 12.7 mph - N/A   Clear
4:53 PM 75.9 °F - 43.0 °F 31% 29.80 in 10.0 mi SSW 10.4 mph 19.6 mph N/A   Clear
5:53 PM 73.9 °F - 45.0 °F 35% 29.80 in 10.0 mi South 8.1 mph 17.3 mph N/A   Clear
6:53 PM 69.1 °F - 46.0 °F 44% 29.79 in 10.0 mi South 4.6 mph - N/A   Clear
7:53 PM 63.0 °F - 48.0 °F 58% 29.78 in 10.0 mi Calm Calm - N/A   Clear
8:53 PM 54.0 °F - 48.9 °F 83% 29.80 in 10.0 mi Calm Calm - N/A   Clear
9:53 PM 52.0 °F - 48.9 °F 89% 29.81 in 10.0 mi Calm Calm - N/A   Clear
10:53 PM 51.1 °F - 48.9 °F 92% 29.82 in 10.0 mi Calm Calm - N/A   Clear
11:53 PM 55.0 °F - 50.0 °F 83% 29.81 in 10.0 mi WSW 4.6 mph - N/A   Clear